Regional Weather Roundup
Issued by NWS

Home | Current Version | Previous Version | Graphics & Text | Print | Product List | Glossary On
Versions: 1 2 3 4 5 6 7 8 9 10 11 12 13 14 15 16 17 18 19 20 21 22 23 24 25 26 27 28 29 30 31 32 33 34 35 36 37 38 39 40 41 42 43 44 45 46 47 48 49 50
000
ASUS43 KIND 202209
RWRIN

WEATHER ROUNDUP FOR INDIANA
NATIONAL WEATHER SERVICE INDIANAPOLIS IN
600 PM EDT FRI OCT 20 2017

NOTE: "FAIR" INDICATES FEW OR NO CLOUDS BELOW 12,000 FEET WITH NO
SIGNIFICANT WEATHER AND/OR OBSTRUCTIONS TO VISIBILITY.

* - STATION DOES NOT REPORT WEATHER SUCH AS PRECIPITATION OR FOG.

+ - STATION NOT QUALITY CONTROLLED BY THE NATIONAL WEATHER SERVICE.
    USE DATA WITH CAUTION...ESPECIALLY DEWPOINT AND RELATIVE
    HUMIDITY OBSERVATIONS.

INZ001>003-010>013-019-020-202300-
NORTHWEST INDIANA

CITY           SKY/WX    TMP DP  RH WIND       PRES   REMARKS
GARY /AIRPORT/ MOCLDY    79  46  31 S7        30.08F
KNOX *+        CLEAR     73  50  43 S10       30.10F
LA PORTE +     CLEAR     74  51  44 S8        30.11F
MICHIGAN CITY+ CLEAR     73  50  43 S7        30.10S
MONTICELLO +   CLEAR     74  47  37 S6        30.12S
RENSSELAER +   CLEAR     73  37  27 S7        30.11S
VALPARAISO     CLEAR     76  51  41 S7        30.10F

$$

LMZ046-743>745-202300-
SOUTHERN LAKE MICHIGAN

STATION/POSITION TIME  TEMP    WIND        PRES    WAVE
                       AIR SEA DIR/SP/G            HT
                 (UTC) (F)     (DEG/KT/KT) (MB)    (FT)
BURNS HARBOR     2140   76     190/ 11/ 15 1018.6F
MICHIGAN CITY    2140   76     160/ 11/ 14   N/A
5NW MICH CITY    2200   68 59  180/  8/ 12   N/A     1

$$

INZ004-005-014>016-021>024-202300-
NORTH CENTRAL INDIANA

CITY           SKY/WX    TMP DP  RH WIND       PRES   REMARKS
ELKHART        CLEAR     73  50  43 S6        30.12F
GOSHEN         CLEAR     74  49  41 S9        30.13F
LOGANSPORT +   CLEAR     73  46  38 S9        30.14S
PERU/GRISSOM   CLEAR     74  51  44 S8        30.13F
SOUTH BEND     CLEAR     73  50  44 S13       30.12F
WARSAW +       CLEAR     72  52  49 S3        30.13F

$$

INZ006>009-017-018-025>027-202300-
NORTHEAST INDIANA

CITY           SKY/WX    TMP DP  RH WIND       PRES   REMARKS
AUBURN +       CLEAR     73  50  43 S3        30.16F
FORT WAYNE     MOCLDY    73  50  44 S9        30.15F
HUNTINGTON +   CLEAR     74  47  39 SW7       30.15S
KENDALLVILLE + CLEAR     73  52  46 S9        30.15F

$$

INZ028-029-035-036-043>045-051>053-202300-
WEST CENTRAL INDIANA

CITY           SKY/WX    TMP DP  RH WIND       PRES   REMARKS
GREENCASTLE +  SUNNY     72  46  40 S3        30.15F
LAFAYETTE      CLEAR     74  50  42 S8        30.11F
TERRE HAUTE    SUNNY     73  49  42 S7        30.14S

$$

INZ030>032-037>040-046>048-054>057-064-065-202300-
CENTRAL INDIANA

CITY           SKY/WX    TMP DP  RH WIND       PRES   REMARKS
CP ATTERBURY + CLEAR     73  50  43 S5        30.17S
COLUMBUS       CLEAR     73  41  31 S8        30.17F
FRANKFORT +    CLOUDY    76  50  40 S6        30.15F
GREENWOOD *+   CLEAR     79  49  35 S5        30.17S
INDIANAPOLIS   MOCLDY    71  49  45 S7        30.15F
-EAGLE CREEK   CLEAR     74  48  39 S7        30.14F
KOKOMO +       CLEAR     74  50  42 S7        30.15F
MARION +       CLEAR     73  48  40 S8        30.16S HAZE
MT COMFORT *+  CLEAR     73  55  53 S8        30.17S
SHELBYVILLE    CLEAR     75  46  35 S9        30.16F
ZIONSVILLE +   CLEAR     72  48  42 S7        30.16S

$$

INZ033-034-041-042-049-050-058-059-202300-
EAST CENTRAL INDIANA

CITY           SKY/WX    TMP DP  RH WIND       PRES   REMARKS
MUNCIE         CLEAR     76  46  34 SW7       30.16F
RICHMOND +     CLEAR     72  50  46 S10       30.20S

$$

INZ060-061-067>069-081>083-085>088-202300-
SOUTHWEST INDIANA

CITY           SKY/WX    TMP DP  RH WIND       PRES   REMARKS
EVANSVILLE     SUNNY     75  48  38 SE8       30.15F
HUNTINGBURG +  SUNNY     74  50  42 S5        30.16F
WASHINGTON +   SUNNY     75  44  32 S8        30.15S

$$

INZ062-063-066-070>080-084-089>092-202300-
SOUTH CENTRAL AND SOUTHEAST INDIANA

CITY           SKY/WX    TMP DP  RH WIND       PRES   REMARKS
BEDFORD +      SUNNY     75  41  29 S5        30.16S
BLOOMINGTON    SUNNY     75  48  38 S6        30.16F
MADISON *+     CLEAR     75  46  35 S3        30.20S
NORTH VERNON + CLEAR     73  48  40 S3        30.18S

$$





USA.gov is the U.S. government's official web portal to all federal, state and local government web resources and services.